Theta_e
298 299 300 300 300 299 299 300 300 301 302 302 302 303 303 303 302 303 305 305 305 306 305 306 306 308 308 308 310 310 314 313 312 314 316 316 314 318 324 325 326 329 330 333 334 334 331 327 326 329 335 341 336 333
298 299 299 299 299 299 300 300 300 300 302 302 302 302 303 303 303 303 305 305 305 305 306 305 305 305 305 306 307 308 311 314 314 315 312 314 316 316 319 326 324 328 330 332 331 332 333 332 334 338 336 334 330 333
296 298 298 299 299 299 299 299 300 300 302 302 302 302 302 302 303 303 304 306 307 307 308 309 309 307 307 306 306 309 310 309 311 313 315 316 317 314 317 318 320 323 323 325 327 330 329 328 330 332 331 331 331 332
296 297 298 298 298 298 298 299 300 301 302 302 302 303 303 303 301 302 304 306 305 307 308 309 307 308 309 308 308 306 309 309 310 310 313 315 316 314 313 315 315 316 318 324 325 327 328 328 330 329 329 330 330 330
296 297 297 297 297 298 298 299 300 301 302 302 302 303 303 302 301 302 305 306 306 306 308 308 307 308 307 307 307 307 309 310 310 310 313 313 310 313 312 312 313 313 315 320 327 321 322 329 328 327 331 330 332 331
295 295 295 296 297 298 299 300 300 302 302 302 302 302 302 301 301 305 308 306 305 304 306 310 308 309 308 308 308 308 310 310 309 309 309 309 311 315 314 314 313 312 313 313 316 316 318 321 328 328 330 330 331 330
294 294 294 295 296 298 299 300 301 302 302 302 302 302 301 301 303 306 307 304 302 304 307 309 310 309 308 309 309 309 309 309 309 310 309 309 309 310 312 314 311 312 312 314 314 313 316 322 325 325 329 329 329 331
292 292 293 294 296 298 299 300 301 302 302 302 302 301 301 301 302 306 308 305 304 305 308 309 310 309 309 311 311 311 310 309 309 310 310 309 309 309 313 311 310 309 310 311 313 314 314 316 321 322 325 326 327 329
292 292 293 294 296 298 300 300 301 302 304 303 304 303 305 306 308 307 304 303 305 306 308 309 310 312 309 310 308 311 310 310 309 310 309 310 311 312 309 309 309 310 310 310 312 313 314 314 319 320 321 324 325 327
292 292 292 293 297 299 299 300 301 302 305 306 307 309 310 308 304 305 308 308 308 307 307 308 309 312 310 309 309 311 311 311 312 310 309 310 311 311 310 309 309 310 309 311 312 314 314 317 318 319 318 318 321 324
291 292 292 293 298 299 299 301 302 303 307 306 307 308 306 307 308 310 310 310 310 310 309 310 312 313 310 311 309 308 311 311 313 312 312 311 311 312 312 311 310 310 311 310 314 314 315 317 317 318 317 317 317 320
291 292 292 294 298 300 299 301 302 304 306 305 304 305 308 311 309 309 310 309 310 311 310 313 311 311 312 307 307 306 308 310 312 312 314 315 315 316 315 315 311 312 312 311 311 313 314 316 316 317 317 318 318 319
291 292 292 296 300 300 299 301 302 303 305 309 309 310 309 309 311 310 310 311 314 311 310 312 313 311 312 308 304 307 309 312 307 312 313 315 310 312 314 316 315 312 311 313 311 312 314 315 315 316 317 318 318 322
291 292 293 301 301 299 299 302 302 306 308 309 309 310 311 311 312 313 313 312 311 311 311 312 312 312 312 309 308 310 311 307 314 316 315 310 306 308 309 314 314 316 316 317 314 314 313 314 314 316 316 317 319 322
291 292 300 301 298 298 300 304 305 308 309 309 309 312 311 309 311 309 309 310 310 310 311 313 311 311 313 311 310 310 312 313 312 312 308 303 303 305 306 307 307 307 311 315 317 318 319 316 316 319 318 318 319 320
292 294 302 298 296 298 301 306 310 308 308 309 309 311 310 310 309 308 308 308 310 309 310 311 311 311 312 311 311 310 310 309 308 303 304 308 307 306 306 304 306 307 307 310 313 314 316 320 321 322 319 321 320 322
292 299 296 295 295 299 306 307 308 308 308 308 310 309 309 308 309 309 307 308 309 309 311 310 310 311 310 311 312 307 309 306 305 309 311 312 311 311 309 310 308 308 308 310 311 311 315 320 322 324 327 327 328 330
295 296 293 296 299 302 308 308 308 308 308 310 309 308 308 309 308 308 308 308 309 309 310 312 310 310 312 312 312 311 307 309 311 311 311 311 312 312 311 311 311 310 309 310 311 311 313 315 320 323 321 323 324 325
293 292 294 298 301 302 310 308 308 309 309 308 308 307 308 308 308 308 309 308 308 309 309 310 311 311 312 312 310 311 313 313 313 313 313 313 313 312 312 310 311 311 311 311 312 311 312 312 315 317 318 319 322 321
293 292 299 302 301 307 308 309 308 310 310 308 307 308 307 308 308 308 308 308 308 309 310 310 310 310 309 311 309 310 312 312 311 311 314 311 312 312 312 312 313 311 311 311 311 312 312 313 313 313 313 314 315 317
294 301 302 301 306 308 308 308 307 309 309 308 307 307 307 307 307 307 308 309 309 308 309 308 308 309 309 310 310 310 311 312 311 310 309 310 310 311 312 311 311 311 312 312 312 312 312 313 312 313 314 313 313 314
297 299 300 303 306 307 308 307 308 307 307 308 308 307 310 311 310 308 306 308 309 309 308 308 308 308 310 311 311 310 310 310 309 309 309 308 309 310 311 310 311 312 312 312 312 311 311 310 312 312 312 312 313 313
300 302 303 306 306 306 305 305 308 308 307 307 308 308 308 310 308 307 307 308 308 308 307 307 307 308 309 308 309 309 309 309 309 309 310 310 308 307 307 308 308 310 310 311 310 311 311 310 311 312 312 313 313 313
299 302 304 305 306 306 305 307 309 308 308 308 307 306 305 306 307 307 306 307 307 307 306 306 306 308 309 309 308 307 308 308 308 308 308 309 310 309 307 306 307 308 308 308 309 309 310 311 311 311 311 312 312 312
300 302 304 304 306 306 306 306 306 307 307 306 305 306 307 306 307 306 306 305 307 307 306 305 305 306 307 308 308 308 308 307 309 309 307 307 307 308 308 307 307 307 307 307 308 308 309 310 311 311 311 311 311 311
300 303 304 305 306 306 306 305 305 306 305 304 305 305 309 306 306 305 304 305 306 306 305 305 305 305 306 306 307 307 306 306 306 308 307 306 306 307 307 308 307 307 306 307 307 308 307 308 309 309 309 310 310 311
301 302 304 303 306 306 306 306 305 305 305 305 304 303 305 304 303 303 305 305 304 303 303 302 303 304 304 304 304 304 304 305 306 306 306 305 305 306 306 307 307 306 305 305 306 307 307 307 307 307 307 307 309 310
299 300 301 304 303 306 306 306 305 304 303 303 303 304 304 304 302 304 305 304 303 301 301 300 300 301 302 304 303 303 303 303 304 305 306 306 305 304 304 305 304 304 304 302 304 306 307 307 307 308 307 306 304 303
299 301 299 300 301 305 305 305 304 303 303 303 305 305 303 303 302 302 301 301 300 300 300 300 300 300 300 302 303 303 302 302 303 304 306 304 302 300 302 302 303 303 303 303 302 304 303 302 303 304 302 301 301 299
299 299 302 303 304 304 304 303 303 303 302 301 302 302 303 303 302 300 300 300 300 300 300 299 299 299 300 300 303 304 301 301 300 300 301 301 300 300 300 300 300 300 301 302 302 302 301 300 300 299 297 295 294 294
299 300 300 303 303 302 302 302 303 301 301 301 301 302 301 301 300 300 300 300 300 300 300 299 298 300 302 302 302 302 301 300 299 299 296 297 298 298 298 298 298 299 299 300 299 299 299 296 293 292 292 292 291 291
300 300 301 302 304 303 302 301 302 301 300 301 302 301 301 301 300 301 300 300 300 300 298 299 300 300 300 300 299 299 297 297 295 292 290 292 294 294 295 296 297 298 298 297 296 294 292 291 291 291 290 289 289 289
302 299 300 301 305 303 302 301 301 302 302 304 301 300 300 300 300 301 300 299 299 299 299 299 298 297 296 297 296 295 294 290 289 287 287 287 289 291 294 294 296 297 296 296 294 293 292 291 290 289 288 288 288 287
Wind_Speed
31 30 29 27 27 27 27 28 29 31 28 27 24 22 17 13 11 6 11 10 5 3 15 18 13 9 9 8 3 10 8 9 6 8 5 5 4 6 7 15 10 14 15 12 15 13 11 13 17 20 6 6 6 14
31 29 29 28 27 27 29 29 30 30 28 25 23 20 15 13 13 13 9 15 7 4 11 29 23 20 15 15 2 4 8 8 6 5 7 4 6 3 9 6 10 6 3 9 8 11 3 6 8 7 8 7 7 14
31 30 30 30 30 29 30 31 29 29 28 26 23 21 16 14 12 12 16 16 10 4 11 5 8 18 14 16 13 3 1 5 5 6 5 3 4 1 2 7 9 6 13 6 8 17 14 11 8 7 10 8 7 9
31 31 32 33 32 31 31 31 29 31 29 25 24 23 19 16 16 15 15 14 11 5 4 6 5 4 13 15 18 21 9 5 7 7 4 3 3 8 6 9 9 10 10 13 12 10 10 2 9 7 10 8 10 8
31 33 34 34 33 32 32 30 30 35 30 26 24 23 20 16 14 14 16 11 6 4 5 9 19 4 3 6 9 10 7 8 7 7 5 7 7 5 5 5 10 8 4 4 4 18 12 12 16 28 13 3 3 9
33 35 36 35 35 34 32 29 34 36 31 27 25 23 19 13 10 10 2 1 7 9 4 5 8 5 11 6 9 10 6 8 8 8 8 4 8 2 2 7 11 10 16 13 13 15 19 21 14 19 20 4 10 6
35 37 38 36 36 35 31 33 37 37 32 30 22 17 10 7 6 5 5 10 14 13 2 4 5 3 11 8 8 8 10 7 8 9 9 10 8 6 7 12 14 12 15 10 8 16 22 21 8 9 26 11 10 12
37 38 38 38 37 34 31 36 39 35 30 20 16 13 7 5 7 6 3 4 8 6 3 3 4 4 3 3 4 6 6 6 7 9 11 9 11 10 11 16 14 15 15 16 12 18 21 19 23 9 20 10 6 1
38 38 39 40 37 30 34 37 40 32 26 16 11 8 3 5 3 3 10 7 5 5 3 3 3 4 4 3 2 3 2 3 4 9 11 8 11 11 15 17 19 16 12 16 16 17 23 19 20 21 15 10 8 5
40 39 40 41 34 27 36 40 40 28 19 15 8 6 1 5 12 6 4 3 4 4 4 5 1 5 4 0 2 3 3 3 3 6 8 11 13 19 21 19 18 17 15 14 17 16 17 17 16 21 14 13 8 8
40 40 41 41 30 29 38 39 36 27 15 10 5 3 13 12 5 1 3 3 3 3 3 4 7 8 2 3 2 2 3 3 3 3 3 4 11 13 19 22 19 18 21 18 14 16 18 14 16 17 17 13 12 11
40 41 42 40 27 31 40 39 29 17 12 8 9 10 7 4 1 4 5 3 2 5 6 9 12 9 2 3 1 1 2 3 5 8 3 3 6 15 15 19 21 19 20 19 16 17 12 15 16 17 15 12 13 14
40 41 42 34 24 36 41 37 24 18 15 5 3 3 4 3 6 6 7 4 6 8 8 12 11 5 2 2 1 1 3 4 6 3 3 3 10 14 13 15 11 13 20 19 18 18 16 18 16 18 18 16 17 13
39 41 39 19 31 41 39 32 20 15 6 2 5 6 5 3 3 4 6 7 5 6 12 11 5 2 2 1 1 2 1 2 2 3 4 5 13 15 14 12 11 13 14 14 15 18 19 18 18 21 24 23 19 16
38 40 19 24 39 40 37 23 11 7 4 3 3 4 3 3 8 6 8 8 7 9 8 5 1 4 5 3 3 3 6 5 4 4 4 4 12 10 12 12 13 12 10 7 9 9 15 18 17 17 21 25 29 27
38 28 11 35 41 40 31 22 8 5 2 3 2 4 8 8 9 9 9 10 10 9 8 5 4 4 4 4 4 4 8 4 4 3 9 6 1 5 7 9 9 10 11 8 8 9 13 19 20 17 26 28 34 33
30 10 33 38 39 37 19 8 5 1 2 3 4 3 4 7 8 10 9 9 10 7 6 4 5 4 3 5 5 3 4 5 8 9 9 7 3 4 6 4 8 13 14 11 12 14 14 12 14 16 6 8 8 15
18 29 36 32 27 27 11 5 3 2 3 5 3 7 6 6 5 6 7 8 7 9 7 2 2 4 3 4 4 2 4 5 6 10 6 1 4 3 5 8 9 5 10 11 12 11 19 15 9 8 10 15 9 17
33 35 29 22 15 7 4 2 1 3 4 6 6 5 7 5 4 6 7 7 6 8 4 3 3 3 1 3 5 5 4 3 3 3 6 10 7 10 7 6 7 8 7 9 9 11 12 18 11 15 13 15 8 15
33 31 13 11 9 5 4 3 3 3 3 4 8 5 7 5 6 2 4 6 6 4 4 4 3 5 4 2 4 6 7 10 4 4 4 3 4 7 7 8 5 7 5 9 10 16 12 8 9 16 17 16 12 9
24 4 15 13 7 11 4 4 3 2 3 4 7 8 6 5 7 6 4 3 4 1 1 4 4 5 6 2 7 6 7 9 6 9 9 7 8 15 12 14 14 18 7 6 8 7 9 4 11 12 12 14 14 12
12 16 12 6 5 4 4 8 4 4 5 7 8 7 5 3 8 7 4 2 4 4 4 6 6 8 10 14 1 3 8 14 11 9 13 11 9 9 9 13 11 7 7 10 11 8 10 12 14 15 16 14 16 17
10 6 5 6 4 3 6 9 4 3 3 3 4 4 3 3 6 5 1 4 4 3 3 4 8 12 10 13 23 21 14 9 5 6 9 12 16 14 13 14 14 7 8 10 14 19 17 24 25 20 15 14 15 14
8 4 4 4 7 4 3 4 4 3 3 1 3 4 4 4 5 2 7 7 1 2 2 3 6 2 2 3 3 8 14 12 13 15 11 12 7 9 14 15 17 19 17 19 14 13 15 14 16 18 21 20 15 10
4 5 4 6 5 5 4 3 5 5 4 6 4 4 4 3 2 4 8 8 4 6 1 4 6 6 5 4 1 7 17 8 5 4 13 12 6 4 9 10 14 17 18 13 14 16 16 16 16 16 16 16 15 23
7 5 7 6 4 6 6 4 6 7 6 6 4 3 1 3 3 5 6 5 2 4 3 3 2 4 6 5 5 7 8 12 11 6 11 12 11 9 6 6 7 12 16 17 16 17 16 19 17 18 20 21 24 19
6 7 7 7 7 6 4 6 5 4 3 5 3 4 2 3 5 6 3 4 2 4 6 6 5 5 3 6 9 10 10 11 6 6 8 7 7 7 9 8 7 7 11 12 14 15 18 18 15 15 16 18 23 21
7 5 12 7 9 8 12 9 4 4 5 5 4 6 5 6 4 2 3 3 7 4 7 9 10 13 9 2 6 11 13 11 11 5 8 6 7 5 4 5 6 4 6 12 13 12 13 17 19 18 19 19 19 17
6 5 8 10 13 9 10 9 8 8 7 8 9 8 9 8 8 6 6 7 9 10 10 10 9 9 11 10 3 2 9 13 9 7 7 7 6 13 8 6 7 8 8 7 11 12 14 16 15 14 14 13 13 14
9 10 9 10 13 11 10 7 9 10 9 10 11 9 9 9 13 7 9 11 11 10 10 7 10 13 14 11 2 5 7 10 7 8 6 5 5 5 7 8 8 8 7 7 8 9 11 11 12 13 14 15 16 16
5 9 12 11 12 8 10 11 10 10 10 10 8 7 7 9 13 14 12 12 8 9 7 8 8 11 10 8 7 2 2 3 5 5 9 8 9 8 8 8 7 7 6 8 8 10 8 11 12 13 14 14 16 16
9 13 9 12 11 9 9 10 10 11 11 10 11 11 10 10 10 3 7 3 6 7 1 3 8 8 6 5 5 4 2 3 7 8 10 9 8 8 8 7 5 5 4 8 9 9 10 11 12 12 13 14 14 14
8 10 10 8 5 2 6 8 6 9 8 6 10 11 12 13 11 3 5 6 8 10 12 9 7 7 7 7 5 6 7 7 9 10 12 11 9 10 9 8 6 10 10 12 12 9 9 11 12 12 12 13 13 14
Wind_Direction
347 348 348 349 349 350 352 353 353 351 350 350 348 354 356 358 354 324 294 284 254 271 287 277 288 306 284 300 301 314 309 244 225 227 207 192 246 342 302 302 315 243 181 209 221 228 221 221 220 212 151 251 247 194
346 347 348 348 348 346 343 342 343 345 348 348 347 344 349 343 350 342 303 318 282 231 280 291 289 278 241 271 227 304 336 338 13 292 219 246 248 106 343 312 244 281 55 255 225 213 233 301 242 117 151 230 231 186
343 344 343 342 342 342 341 340 341 342 343 342 341 336 328 319 322 324 310 320 312 268 290 293 269 221 215 219 207 289 3 312 312 353 326 335 328 278 207 265 324 282 8 308 357 271 229 238 264 188 203 212 165 168
344 343 342 340 339 339 340 340 340 341 340 337 332 327 323 315 309 312 303 315 311 287 283 311 301 207 208 207 213 215 251 250 269 289 293 284 270 304 282 250 273 301 337 328 306 316 308 258 315 180 170 182 193 193
346 344 343 342 340 338 339 338 338 338 338 335 327 320 316 308 309 306 294 279 267 323 312 306 297 354 300 260 244 249 245 276 281 274 248 264 265 271 261 297 265 269 314 304 340 334 328 292 7 330 214 129 231 174
346 345 344 344 341 339 339 340 339 338 336 333 323 314 310 302 305 317 298 347 331 347 314 312 319 342 351 274 251 250 239 246 272 271 280 279 305 196 299 269 261 270 270 254 280 294 306 312 15 305 285 116 358 251
343 343 342 343 342 339 341 342 340 338 334 331 322 314 313 289 273 278 293 322 323 319 250 284 301 325 340 299 291 282 277 235 237 263 265 271 243 219 256 259 275 294 287 271 240 290 289 300 266 250 309 144 116 294
342 343 342 341 341 339 342 342 341 341 340 339 334 325 302 277 276 279 275 295 301 279 255 277 285 334 352 336 316 337 292 281 261 260 259 256 257 241 240 257 268 265 255 267 272 267 258 279 294 277 269 318 281 207
343 344 342 340 340 339 343 342 343 342 341 340 328 322 284 231 223 327 298 292 222 261 286 259 287 312 342 36 300 272 264 264 269 245 242 255 257 237 241 243 244 252 264 250 256 243 264 242 255 265 280 275 323 332
342 343 343 340 338 340 345 344 344 341 343 345 313 224 273 18 319 306 219 203 198 207 230 266 280 293 295 309 293 284 215 253 261 257 253 239 248 260 259 251 262 268 243 228 242 248 274 275 274 242 267 283 283 303
339 341 343 341 335 339 345 346 343 344 345 344 340 321 327 315 283 275 284 248 219 244 231 299 318 304 162 242 231 311 316 303 262 271 277 236 245 254 247 254 249 244 263 251 234 249 236 254 254 275 253 267 279 264
336 338 341 341 331 338 344 345 342 346 347 320 304 292 282 268 279 299 309 286 283 327 327 335 332 325 98 117 161 213 275 272 263 341 242 250 2 359 340 321 238 237 246 251 235 226 263 271 263 277 283 278 279 274
334 335 339 337 331 337 341 341 338 327 320 265 246 288 345 307 12 337 334 353 322 324 320 327 323 327 67 93 138 216 240 254 331 269 259 60 340 328 338 316 330 237 237 251 248 236 213 243 251 265 276 277 278 283
333 332 338 334 337 337 335 336 336 329 289 315 334 328 2 359 299 336 315 321 285 268 307 319 310 292 279 61 247 278 298 283 270 293 337 330 327 336 320 337 317 333 325 304 250 248 247 234 236 247 235 260 276 280
332 331 341 340 336 332 335 332 321 305 299 335 343 323 350 299 283 2 345 350 343 338 344 345 344 334 29 1 12 325 332 336 349 306 293 296 321 330 347 13 12 10 349 336 343 320 293 251 239 244 236 234 241 243
332 333 335 330 331 330 336 332 290 280 21 279 277 312 328 2 339 4 351 352 346 354 11 22 10 7 -0 348 342 12 325 333 298 290 294 298 94 57 53 39 11 5 1 345 12 337 289 261 245 238 225 238 235 237
335 297 319 322 328 327 331 306 298 296 269 288 272 255 276 332 9 339 350 353 344 340 28 35 16 355 337 337 348 2 334 292 297 334 339 322 347 268 254 314 45 25 3 2 6 346 327 303 323 222 128 358 56 112
310 313 323 329 335 332 312 228 290 271 264 256 275 308 348 329 339 338 353 358 346 340 360 63 77 9 16 337 323 300 244 268 318 334 342 4 355 7 31 8 25 22 13 10 3 304 31 11 76 112 95 79 27 90
313 315 318 324 327 307 280 268 278 274 268 317 298 325 318 324 350 312 337 343 354 337 355 15 9 356 335 253 334 341 304 263 278 308 332 348 48 48 96 81 343 34 8 343 349 16 13 1 14 30 55 74 57 47
317 315 316 329 327 273 275 264 227 236 268 276 300 288 295 306 313 332 288 326 12 357 25 358 345 322 353 351 342 340 341 309 339 348 16 34 34 73 55 44 77 107 53 345 21 43 16 15 29 53 46 48 47 34
327 313 320 321 258 227 278 279 277 283 260 252 291 302 308 319 315 315 334 69 343 281 23 288 4 309 339 300 79 309 323 321 354 41 2 9 33 59 21 42 30 31 48 38 45 33 33 22 44 77 77 68 63 61
276 305 311 282 250 246 250 248 238 284 273 261 276 286 295 287 270 279 303 330 161 271 326 330 329 348 8 346 127 269 355 352 13 8 11 37 28 28 50 42 19 43 47 20 20 50 29 15 38 55 65 68 71 58
296 314 254 242 237 244 261 267 245 270 271 281 338 313 284 273 285 292 18 281 197 263 294 339 331 27 0 343 332 350 4 352 347 0 31 12 13 40 41 30 42 40 24 39 33 36 28 20 30 27 39 67 70 71
276 256 253 239 206 246 243 234 216 227 285 306 264 266 283 258 279 295 278 246 323 303 269 351 321 74 120 280 348 339 347 1 348 352 4 48 355 21 37 47 25 22 40 19 20 34 39 52 49 38 34 23 29 72
266 254 225 238 263 202 234 219 212 212 241 213 245 257 269 292 304 278 286 281 117 249 73 26 336 333 343 350 47 200 284 1 63 275 327 21 150 283 59 18 56 31 15 24 22 16 48 53 43 38 47 33 36 33
233 232 212 215 227 208 203 210 205 221 225 221 232 248 251 270 233 251 251 271 78 319 73 46 338 339 320 352 6 325 339 349 11 5 342 358 19 6 12 7 32 35 15 359 13 35 24 61 56 46 36 29 31 57
238 239 222 239 245 224 226 230 237 211 190 213 233 245 257 247 247 241 50 46 7 355 10 342 337 305 309 314 321 319 326 318 338 351 337 357 23 8 16 30 30 13 18 11 2 33 21 24 52 67 52 45 47 48
236 245 230 232 242 249 241 240 209 225 227 220 222 194 198 207 244 39 9 200 222 257 306 311 305 295 288 271 291 318 316 311 309 284 297 351 1 5 22 72 50 34 56 42 30 27 20 39 43 55 63 59 54 49
230 231 235 233 234 231 231 218 225 232 232 230 208 217 239 255 274 293 271 266 282 287 287 280 294 314 296 240 217 295 334 327 341 343 33 60 46 321 345 23 25 29 22 75 59 60 57 50 47 53 56 63 65 64
237 225 235 233 217 222 223 219 234 239 244 243 253 243 227 224 247 285 296 286 277 282 291 301 306 306 305 301 227 81 43 327 3 3 359 14 30 29 13 1 8 17 18 15 14 48 53 42 42 46 50 51 51 54
240 203 222 225 229 234 242 252 263 254 248 259 259 260 252 253 253 253 258 273 292 292 295 302 316 4 13 4 25 84 125 34 31 29 10 339 340 6 0 345 356 11 24 39 38 22 53 60 65 63 62 60 56 58
235 232 216 212 226 242 255 269 266 250 247 242 237 244 253 257 255 331 28 305 269 291 357 1 32 60 60 72 83 91 117 65 50 26 14 5 358 347 333 341 357 11 49 79 62 59 63 68 67 67 65 64 63 61
248 258 245 246 229 296 244 245 257 263 277 285 282 281 280 281 278 106 85 53 49 48 48 61 76 77 71 73 81 87 80 81 63 56 46 39 32 31 33 26 23 40 57 78 81 78 80 83 82 79 75 70 66 60